Andover, VA

3:21 PM EST on February 10, 2016 (GMT -0500)
Lonesome Pine

Weather History for KLNP - January, 2013

Change the Weather History Date:

Monday, January 14, 2013

  Actual Average Record
Temperature  
Mean Temperature 44 °F -  
Max Temperature 57 °F 38 °F 60 °F (2007)
Min Temperature 32 °F 22 °F 6 °F (1997)
Degree Days  
Heating Degree Days 20    
Moisture  
Dew Point 40 °F    
Average Humidity 100    
Maximum Humidity 100    
Minimum Humidity 100    
Precipitation  
Precipitation 0.51 in - - ()
Sea Level Pressure  
Sea Level Pressure 30.18 in    
Wind  
Wind Speed 7 mph (North)    
Max Wind Speed 12 mph    
Max Gust Speed 18 mph    
Visibility 3 miles    
Events Fog , Rain , Snow    
Averages and records for this station are not official NWS values.
T = Trace of Precipitation, MM = Missing Value Source: NWS Daily Summary

Daily Weather History Graph

Daily Weather History Graph

Search for Another Location

Airport or City:

Trip Planner

Search our weather history database for the weather conditions in past years. The results will help you decide how hot, cold, wet, or windy it might be!

Date:

Astronomy

Jan. 14, 2013 Rise Set
Actual Time 7:42 AM EST 5:36 PM EST
Civil Twilight 7:14 AM EST 6:04 PM EST
Nautical Twilight 6:42 AM EST 6:36 PM EST
Astronomical Twilight 6:11 AM EST 7:07 PM EST
Moon 9:21 AM EST (1/14) 9:13 PM EST (1/14)
Length of Visible Light 10h 50m
Length of Day
9h 53m
Waxing Crescent, 11% of the Moon is Illuminated
Jan 14
Waxing Crescent
Jan 18
First Quarter
Jan 26
Full
Feb 3
Last Quarter
Feb 10
New

Hourly Weather History & Observations

Time (EST) Temp. Windchill Dew Point Humidity Pressure Visibility Wind Dir Wind Speed Gust Speed Precip Events Conditions
12:35 AM 57.2 °F - 57.2 °F 100% 30.09 in 10.0 mi SSW 9.2 mph 16.1 mph 0.01 in Rain Rain
12:55 AM 57.2 °F - 57.2 °F 100% 30.07 in 10.0 mi South 4.6 mph - 0.04 in Rain Rain
1:15 AM 57.2 °F - 57.2 °F 100% 30.07 in 10.0 mi Calm Calm - N/A Rain Rain
1:35 AM 55.4 °F - 55.4 °F 100% 30.08 in 10.0 mi Calm Calm - N/A   Overcast
2:15 AM 53.6 °F - 53.6 °F 100% 30.09 in 0.2 mi NNW 8.1 mph - N/A Fog Fog
2:35 AM 50.0 °F - 50.0 °F 100% 30.09 in 3.0 mi NW 6.9 mph - N/A   Drizzle
2:55 AM 50.0 °F - 50.0 °F 100% 30.11 in 1.5 mi NNW 11.5 mph - 0.01 in Rain Light Rain
3:15 AM 46.4 °F 41.9 °F 46.4 °F 100% 30.12 in 2.0 mi NNW 9.2 mph - N/A Rain Rain
3:35 AM 42.8 °F 37.5 °F 42.8 °F 100% 30.12 in 1.2 mi NNW 9.2 mph - 0.01 in Rain Rain
3:55 AM 42.8 °F 38.6 °F 42.8 °F 100% 30.13 in 4.0 mi NNW 6.9 mph - 0.04 in Rain Rain
4:35 AM 41.0 °F 35.8 °F 41.0 °F 100% 30.14 in 7.0 mi NNW 8.1 mph - 0.05 in Rain Light Rain
5:15 AM 41.0 °F 35.8 °F 41.0 °F 100% 30.15 in 1.8 mi NNW 8.1 mph - 0.01 in Rain Light Rain
5:35 AM 41.0 °F 35.8 °F 41.0 °F 100% 30.15 in 1.0 mi NNW 8.1 mph - 0.01 in Rain Rain
5:55 AM 41.0 °F 35.8 °F 41.0 °F 100% 30.15 in 1.8 mi North 8.1 mph - 0.01 in Rain Rain
6:15 AM 41.0 °F 35.2 °F 41.0 °F 100% 30.17 in 2.0 mi North 9.2 mph - N/A   Drizzle
6:35 AM 41.0 °F 36.4 °F 41.0 °F 100% 30.16 in 5.0 mi North 6.9 mph - N/A   Light Drizzle
7:15 AM 41.0 °F 36.4 °F 41.0 °F 100% 30.18 in 4.0 mi North 6.9 mph - N/A Rain Rain
7:35 AM 39.2 °F 35.0 °F 39.2 °F 100% 30.18 in 1.2 mi North 5.8 mph - N/A   Light Drizzle
7:55 AM 39.2 °F 35.9 °F 39.2 °F 100% 30.21 in 0.2 mi NNW 4.6 mph - N/A Fog Fog
8:15 AM 41.0 °F 35.8 °F 41.0 °F 100% 30.20 in 0.8 mi North 8.1 mph - N/A   Drizzle
8:35 AM 39.2 °F 34.2 °F 39.2 °F 100% 30.21 in 1.5 mi North 6.9 mph - N/A Rain Rain
8:55 AM 39.2 °F 33.0 °F 39.2 °F 100% 30.21 in 2.5 mi North 9.2 mph - N/A   Light Drizzle
9:15 AM 41.0 °F 37.1 °F 41.0 °F 100% 30.22 in 0.5 mi NNE 5.8 mph - N/A Rain Light Rain
9:35 AM 39.2 °F 34.2 °F 39.2 °F 100% 30.22 in 1.2 mi North 6.9 mph - N/A Rain Rain
9:55 AM 41.0 °F 37.1 °F 41.0 °F 100% 30.21 in 0.2 mi North 5.8 mph - N/A Rain Light Rain
10:15 AM 39.2 °F 35.0 °F 39.2 °F 100% 30.24 in 1.2 mi NNW 5.8 mph - N/A   Overcast
10:35 AM 41.0 °F 36.4 °F 41.0 °F 100% 30.24 in 1.0 mi North 6.9 mph - N/A   Drizzle
10:55 AM 41.0 °F 36.4 °F 41.0 °F 100% 30.23 in 0.5 mi North 6.9 mph - 0.01 in Fog Fog
11:15 AM 39.2 °F 34.2 °F 39.2 °F 100% 30.23 in 0.5 mi North 6.9 mph - N/A Fog Fog
11:35 AM 39.2 °F 33.6 °F 39.2 °F 100% 30.21 in 0.2 mi NNE 8.1 mph - N/A Fog Fog
11:55 AM 39.2 °F 34.2 °F 39.2 °F 100% 30.19 in 0.2 mi NNE 6.9 mph - N/A Fog Fog
12:15 PM 39.2 °F 34.2 °F 39.2 °F 100% 30.18 in 0.2 mi North 6.9 mph - N/A Fog Fog
12:35 PM 39.2 °F 34.2 °F 39.2 °F 100% 30.16 in 0.2 mi NNE 6.9 mph - N/A Fog Fog
12:55 PM 39.2 °F 35.9 °F 39.2 °F 100% 30.16 in 0.2 mi North 4.6 mph - N/A Fog Fog
1:15 PM 39.2 °F 33.6 °F 39.2 °F 100% 30.13 in 0.2 mi NNE 8.1 mph - N/A Fog Fog
1:35 PM 39.2 °F 35.0 °F 39.2 °F 100% 30.14 in 0.2 mi NNE 5.8 mph - N/A Fog Fog
1:55 PM 39.2 °F 35.9 °F 39.2 °F 100% 30.13 in 0.2 mi NE 4.6 mph - N/A Fog Fog
2:15 PM 39.2 °F 35.9 °F 39.2 °F 100% 30.14 in 0.2 mi North 4.6 mph - N/A Fog Fog
2:35 PM 39.2 °F 37.0 °F 39.2 °F 100% 30.14 in 0.2 mi North 3.5 mph - N/A Fog Fog
2:55 PM 39.2 °F 35.9 °F 39.2 °F 100% 30.12 in 0.2 mi ENE 4.6 mph - N/A Fog Fog
3:15 PM 39.2 °F 35.0 °F 39.2 °F 100% 30.14 in 0.2 mi North 5.8 mph - N/A Fog Fog
3:35 PM 39.2 °F 35.9 °F 39.2 °F 100% 30.16 in 0.2 mi NNW 4.6 mph - N/A Fog Fog
3:55 PM 39.2 °F 34.2 °F 39.2 °F 100% 30.15 in 0.2 mi NNE 6.9 mph - N/A Fog Fog
4:15 PM 39.2 °F 33.6 °F 39.2 °F 100% 30.15 in 0.2 mi NNE 8.1 mph - 0.01 in Rain Rain
4:35 PM 39.2 °F 33.6 °F 39.2 °F 100% 30.17 in 0.2 mi NNW 8.1 mph - 0.02 in Rain Light Rain
5:15 PM 37.4 °F 30.8 °F 37.4 °F 100% 30.21 in 1.5 mi North 9.2 mph - 0.01 in Rain Rain
5:35 PM 37.4 °F 30.3 °F 37.4 °F 100% 30.22 in 1.2 mi North 10.4 mph - 0.02 in Rain Light Rain
5:55 PM 35.6 °F 27.5 °F 35.6 °F 100% 30.24 in 1.5 mi NNW 11.5 mph 17.3 mph 0.02 in Rain Light Rain
6:15 PM 35.6 °F 31.7 °F 35.6 °F 100% 30.26 in 7.0 mi NNW 4.6 mph - 0.01 in Rain Light Rain
6:35 PM 33.8 °F 27.0 °F 33.8 °F 100% 30.28 in 3.0 mi NW 8.1 mph 18.4 mph 0.02 in Rain Rain
6:55 PM 33.8 °F 27.0 °F 33.8 °F 100% 30.27 in 4.0 mi NNW 8.1 mph - 0.03 in Rain Rain
7:15 PM 33.8 °F 26.4 °F 33.8 °F 100% 30.27 in 3.0 mi North 9.2 mph - 0.02 in   Overcast
7:35 PM 33.8 °F 27.0 °F 33.8 °F 100% 30.28 in 5.0 mi North 8.1 mph - 0.04 in Rain Light Rain
7:55 PM 33.8 °F 26.4 °F 33.8 °F 100% 30.27 in 4.0 mi North 9.2 mph - 0.06 in Snow Light Snow
8:15 PM 33.8 °F 28.6 °F 33.8 °F 100% 30.28 in 4.0 mi North 5.8 mph - 0.02 in   Overcast
8:35 PM 33.8 °F 25.3 °F 33.8 °F 100% 30.27 in 4.0 mi North 11.5 mph - 0.06 in   Overcast
8:55 PM 33.8 °F 27.7 °F 33.8 °F 100% 30.29 in 4.0 mi North 6.9 mph - 0.09 in Snow Light Snow
9:15 PM 33.8 °F 30.8 °F 33.8 °F 100% 30.28 in 4.0 mi NNE 3.5 mph - 0.02 in   Overcast
9:35 PM 32.0 °F 27.5 °F 32.0 °F 100% 30.24 in 4.0 mi ENE 4.6 mph - 0.05 in Snow Light Snow
9:55 PM 33.8 °F - 33.8 °F 100% 30.24 in 5.0 mi Calm Calm - 0.08 in   Overcast
10:15 PM 33.8 °F 29.6 °F 33.8 °F 100% 30.22 in 7.0 mi SE 4.6 mph - 0.01 in   Overcast
10:35 PM 33.8 °F 27.7 °F 33.8 °F 100% 30.21 in 5.0 mi ESE 6.9 mph - 0.03 in   Overcast
10:55 PM 33.8 °F 27.7 °F 33.8 °F 100% 30.19 in 7.0 mi ESE 6.9 mph - 0.04 in   Overcast
11:15 PM 33.8 °F 28.6 °F 33.8 °F 100% 30.18 in 7.0 mi SE 5.8 mph - 0.01 in   Overcast
11:35 PM 33.8 °F 29.6 °F 33.8 °F 100% 30.16 in 10.0 mi ESE 4.6 mph - 0.01 in   Drizzle
11:55 PM 35.6 °F 29.9 °F 35.6 °F 100% 30.15 in 10.0 mi SE 6.9 mph - 0.01 in Rain Rain